This is the latest recevied weather packets stored in our database for station/object W4SNA-4. If no packets are shown the sender has not sent any weather packets the latest 10 day(s).
| Time | Temp. | Humidity | Pressure | Rain* | Wind** | Luminosity | Snow |
|---|---|---|---|---|---|---|---|
| 1787691735 | 26.67° C | 58% | 1012.9 hPa | 0 mm | - | - | - |
| 1787691437 | 26.67° C | 63% | 1012.9 hPa | 0 mm | - | - | - |
| 1787691136 | 26.67° C | 60% | 1012.9 hPa | 0 mm | - | - | - |
| 1787690835 | 26.67° C | 59% | 1012.9 hPa | 0 mm | - | - | - |
| 1787690536 | 27.22° C | 62% | 1012.9 hPa | 0 mm | - | - | - |
| 1787690236 | 27.22° C | 62% | 1013 hPa | 0 mm | - | - | - |
| 1787689936 | 26.67° C | 61% | 1013 hPa | 0 mm | - | - | - |
| 1787689640 | 26.67° C | 63% | 1013 hPa | 0 mm | - | - | - |
| 1787689339 | 26.67° C | 60% | 1013.2 hPa | 0 mm | - | - | - |
| 1787689037 | 26.67° C | 62% | 1013.2 hPa | 0 mm | - | - | - |
| 1787688736 | 26.67° C | 59% | 1013.2 hPa | 0 mm | - | - | - |
| 1787688436 | 26.67° C | 60% | 1013.3 hPa | 0 mm | - | - | - |
| 1787688146 | 26.67° C | 60% | 1013.3 hPa | 0 mm | - | - | - |
| 1787687835 | 26.67° C | 60% | 1013.3 hPa | 0 mm | - | - | - |
| 1787687539 | 26.67° C | 61% | 1013.3 hPa | 0 mm | - | - | - |
| 1787687236 | 26.67° C | 59% | 1013.3 hPa | 0 mm | - | - | - |
| 1787686936 | 26.67° C | 60% | 1013.3 hPa | 0 mm | - | - | - |
| 1787686636 | 26.67° C | 58% | 1012.5 hPa | 0 mm | - | - | - |
| 1787686335 | 26.67° C | 61% | 1012.5 hPa | 0 mm | - | - | - |
| 1787686044 | 26.67° C | 58% | 1012.5 hPa | 0 mm | - | - | - |
| 1787685736 | 26.67° C | 59% | 1012.8 hPa | 0 mm | - | - | - |
| 1787685435 | 26.67° C | 59% | 1012.8 hPa | 0 mm | - | - | - |
| 1787685139 | 26.67° C | 60% | 1012.8 hPa | 0 mm | - | - | - |
| 1787684837 | 26.67° C | 59% | 1012.9 hPa | 0 mm | - | - | - |
| 1787684536 | 26.67° C | 61% | 1012.9 hPa | 0 mm | - | - | - |
* Rain latest hour (hover to see other rain measurements)
** Current wind speed in m/s (hover to see current wind gust speed)